Index of /shared/routes/7c3d30c18367ed96fa8777f4a5f084f4

[ICO]NameLast modifiedSizeDescription

[PARENTDIR]Parent Directory  -  
[   ]110320-1008-Malinalco-El-Palmar.kmz2011-03-20 17:14 18K 
[   ]110320-1008-Malinalco-El-Palmar.kmz.php2011-03-20 17:14 742  
[IMG]110320-1008-Malinalco-El-Palmar.kmz.png2011-03-20 17:14 0  
[   ]110412-0823-Ciclopista.kmz2011-04-13 19:13 25K 
[   ]110412-0823-Ciclopista.kmz.php2011-04-13 19:13 712  
[IMG]110412-0823-Ciclopista.kmz.png2011-04-13 19:13 0  
[   ]110421-0938-Malinalco-El-Palmar.kmz2011-04-21 15:50 22K 
[   ]110421-0938-Malinalco-El-Palmar.kmz.php2011-04-21 15:50 743  
[IMG]110421-0938-Malinalco-El-Palmar.kmz.png2011-04-21 15:50 0  
[   ]110422-0812-Malinalco-El-Palmar.kmz2011-04-22 14:05 20K 
[   ]110422-0812-Malinalco-El-Palmar.kmz.php2011-04-22 14:05 738  
[IMG]110422-0812-Malinalco-El-Palmar.kmz.png2011-04-22 14:05 0  
[   ]110423-1025-Camino-al-Arbol.kmz2011-04-23 20:11 25K 
[   ]110423-1025-Camino-al-Arbol.kmz.php2011-04-23 20:11 681  
[IMG]110423-1025-Camino-al-Arbol.kmz.png2011-04-23 20:11 0  
[   ]110604-1042-Ciclopista.kmz2011-06-04 17:03 26K 
[   ]110604-1042-Ciclopista.kmz.php2011-06-04 17:03 724  
[IMG]110604-1042-Ciclopista.kmz.png2011-06-04 17:03 0  
[   ]110626-1126-Reforma.kmz2011-06-26 23:22 27K 
[   ]110626-1126-Reforma.kmz.php2011-06-26 23:22 714  
[IMG]110626-1126-Reforma.kmz.png2011-06-26 23:22 0  
[   ]110806-0938-Ciclopista.kmz2011-08-06 19:40 60K 
[   ]110806-0938-Ciclopista.kmz.php2011-08-06 19:40 717  
[IMG]110806-0938-Ciclopista.kmz.png2011-08-06 19:40 0  
[   ]120220-0843-p.m.-Night-run-to-Bay.kmz2012-02-20 14:27 16K 
[   ]120220-0843-p.m.-Night-run-to-Bay.kmz.php2012-02-20 14:27 600  
[IMG]120220-0843-p.m.-Night-run-to-Bay.kmz.png2012-02-20 14:27 0  
[   ]120227-0655-p.m.-Evening---Southport-.kmz2012-02-27 10:35 21K 
[   ]120227-0655-p.m.-Evening---Southport-.kmz.php2012-02-27 10:35 645  
[IMG]120227-0655-p.m.-Evening---Southport-.kmz.png2012-02-27 10:35 0  
[   ]120228-1056-p.m.-Home-to-Arts-Centre.kmz2012-02-28 14:18 18K 
[   ]120228-1056-p.m.-Home-to-Arts-Centre.kmz.php2012-02-28 14:18 639  
[IMG]120228-1056-p.m.-Home-to-Arts-Centre.kmz.png2012-02-28 14:18 0  

Apache/2.4.29 (Ubuntu) Server at kineticgps.com Port 80